Tracking 29892 objects as of 21-Nov-2024
HD Live streaming from Space Station
objects crossing your sky now

DELTA 1 DEB

Track DELTA 1 DEB now!
10-day predictions


NORAD ID: 10471
Int'l Code: 1977-065ED
Perigee: 533.7 km
Apogee: 1,814.1 km
Inclination: 29.1 °
Period: 108.7 minutes
Semi major axis: 7544 km
RCS: 0.2546 m2 (medium)
Launch date: July 14, 1977
Source: United States (US)
Launch site: AIR FORCE EASTERN TEST RANGE (AFETR)

Note: This is SATELLITE DEBRIS
Your satellite tracking list
Your tracking list is empty




NASA's NSSDC Master Catalog

Two Line Element Set (TLE):
1 10471U 77065ED  24325.90468690  .00001006  00000-0  26544-3 0  9997
2 10471  29.0632 169.2428 0848485 242.2609 108.9394 13.24721340277266
Source of the keplerian elements: AFSPC